Погода в Тимишоаре

Румыния     45°45′02″N   21°14′30″E
темп.,
°C
ветер,
м/с
пор.,
м/с
влажн.,
%
обл.,
%
осадки,
мм/ч
давл.,
гПа
погр.,
м
11 апреля, вс
вс1100:00+8ююв33625 0.0 102241
03:00+7вюв22695 0.0 102219
06:00+6вюв33738 0.0 102238
09:00+9вюв34675 0.0 1023138
12:00+16ююв464863 0.0 1022923
15:00+18ю774134 0.0 10211594
18:00+16ю7115095 0.0 1021898
21:00+13ю61346100 0.0 1021361
12 апреля, пн
пн1200:00+12юв4950100 0.0 1021267
03:00+11вюв2356100 0.0 102154
06:00+10вюв226092 0.0 102140
09:00+12юв246215 0.0 1021212
12:00+17ю464988 0.0 1020793
15:00+20ю4545100 0.0 10181055
18:00+20ююв2352100 0.0 1016903
21:00+14в226470 0.0 101711
13 апреля, вт
вт1300:00+13в2271100 0.0 101718
03:00+11вюв117878 0.0 101619
06:00+11с1175100 0.0 101618
09:00+13ю2574100 0.0 1017317
12:00+15юз4572100 0.0 1016469
15:00+16зюз2360100 0.1 10151073
18:00+15сз4475100 0.4 1014411
21:00+9сз6991100 1.1 1015393
14 апреля, ср
ср1400:00+6зсз6997100 13.1 1016376
03:00+5з4794100 17.9 1017440
06:00+4з4695100 0.3 1016482
09:00+4зюз4695100 1.1 1016554
12:00+4з4495100 0.6 1016691
15:00+5ссз1293100 1.1 1016691
18:00+4ссв2497100 0.6 1017690
21:00+4с2494100 0.8 1018402
15 апреля, чт
чт1500:00+4сз2393100 0.1 1018517
03:00+4зюз1293100 0.1 1018146
06:00+4зюз3594100 0.2 1017612
09:00+4з5688100 0.3 1018522
12:00+5з5683100 0.1 1019833
15:00+6з4672100 0.3 10191168
18:00+6зсз4675100 0.3 1019920
21:00+5з3583100 0.5 1020148